FORESAIL-1 PRIME

Last updated on Fri Jun 19 2026 20:04:59 GMT+0000 (Coordinated Universal Time)

1 66778U 25276DS 26170.43439938 .00004058 00000+0 19871-3 0 9990 2 66778 97.4197 243.6644 0003961 98.6161 261.5522 15.18719306 30740
UTC large
Height (km)
Speed (km/s)
/
Latitude / Longitude
Inclination (degrees)
Orbital Period (minutes)
Azimuth
Elevation
Range (km)
Doppler Factor

Next 0 passes for location: London (51.5072 / 0.1276)

No passes found over London.
FORESAIL-1 PRIME